STARLINK-1641, 46174

Orbit data source: Space-Track

STARLINK-1641, 46174 is a payload satellite owned by SpaceX/Seattle (US) in LEO that was launched on Tue, 18 Aug 2020 UTC via an FALCON 9 launch vehicle from the Air Force Eastern Test Range (AFETR). Payload-class satellites include a variety of spacecraft equipped with specific instruments for various scientific and technological missions. These include communications satellites like Starlink; space stations such as the ISS; scientific satellites like the Hubble; Earth observation satellites from companies like Planet Labs, Umbra, and HawkEye 360; GPS; miniature CubeSats for education and research; and military/defense satellites.

Loading next visibility...
Identifier
46174, 2020-057BK
Orbit
LEO
Country
Flag of USUS
Related business
Manufacturer
SpaceX/Seattle
Mission
Operational Commercial Communications
Bus & Motor
STARLINK, Unknown motor
Mass
260 kg wet, ~248 kg dry
Launch date (UTC)
2020-08-18 (5 years ago)
Launch vehicle
FALCON 9
Launch site
Air Force Eastern Test Range (AFETR)
Object type
Payload
Rocket body
Debris
Shape & HBR
Box + 1 Pan, 10.1 m
Radar Cross Section
13.562 m², Large (>1 m²)

Expand to show TLE details & history
Last TLE update: 18 hours ago

TLE from 18 hours ago
0 STARLINK-1641
1 46174U 20057BK  25286.94736355  .00471217  00000-0  28552-1 0  9996
2 46174  53.0541 255.3590 0002147  98.4254 261.6979 15.08111178283946
Epoch: 2025-10-13T22:44Z
TLE epoch observation values (Epoch: 2025-10-13T22:44:12.210Z)
Latitude
-0.00005°
Longitude
-108.43474°
Altitude
543.067 km
Speed
7.592 km/s
True Right ascension
17h 01m 26s
True Declination
0° 00' 00"
Sunlit
Object was in daylight at epoch
Visualization orbit readout
Latitude
Unknown
Longitude
Unknown
Altitude
Unknown
Speed
Unknown
Apparent Right ascension
Unknown
Apparent Declination
Unknown
Sunlit
N/A
Visualization observer readout
Local Sidereal Time
11:29:42
Azimuth
Unknown
Elevation
Unknown
Doppler factor
Unknown
Orbital elements
Apogee altitude
543.729 km
Perigee altitude
540.757 km
Semi-major axis
6,920.38 km
Eccentricity
0.00021
Inclination
53.0541°
RAAN
255.359°
Arg. of periapsis
98.4254°
True anomaly
261.67356°
Mean anomaly
261.6979°
Eccentric anomaly
261.68573°
Mean motion
3.77006 °/min
Orbital period
95.49 mins
BSTAR
0.028552
Loading maneuver chart data...
Computing Atmospheric mass density...
Loading historical data...
Loading historical data...
Loading historical data...
Loading historical data...
Loading historical data...
Loading historical data...
Loading historical data...

Documentation

Showing up to 5 results
|